OKEAN-0
1 25860U 99039A 08002.54206122 .00000015 00000-0 95021-5 0 02545
2 25860 097.7393 000.5716 0001865 080.1784 279.9629 14.73493638454856
NOAA-16
1 26536U 00055A 08002.66969961 -.00000087 00000-0 -21879-4 0 07440
2 26536 099.1420 348.3290 0010251 337.7608 022.3133 14.12462729375266
NOAA-17
1 27453U 02032A 08002.87175747 .00000073 00000-0 50517-4 0 07411
2 27453 098.5586 072.1540 0011105 229.6340 130.3867 14.23937747287133
NOAA-18
1 28654U 05018A 08002.85453576 -.00000140 00000-0 -53393-4 0 02551
2 28654 098.8514 305.9842 0015261 064.9550 295.3207 14.11123867135019
HUBBLE
1 20580U 90037B 08002.97699398 .00000290 00000-0 96416-5 0 00447
2 20580 028.4695 327.2448 0003781 063.7898 296.3080 15.00321266769995
UARS
1 21701U 91063B 08002.94201162 .00005226 00000-0 86735-4 0 02581
2 21701 056.9726 165.9136 0084913 215.0105 144.5353 15.50068229896701
PO-34
1 25520U 98064B 08002.90117372 .00000394 00000-0 96415-5 0 9010
2 25520 028.4597 211.9834 0005255 270.4070 089.5927 15.17108592507883
ISS
1 25544U 98067A 08002.89295425 .00013774 00000-0 82126-4 0 06334
2 25544 051.6378 154.0332 0002185 028.3265 108.9255 15.78270614522282
OO-38
1 26063U 00004C 08002.74656800 -.00000027 00000-0 11311-4 0 01024
2 26063 100.2153 047.1394 0036659 318.7541 041.0864 14.35824149415685
UWE-1
1 28892U 05043C 08002.63891578 .00000227 00000-0 57334-4 0 09399
2 28892 098.1130 260.0837 0016717 206.9887 153.0441 14.59579211116304
CO-58
1 28895U 05043F 08002.40590657 .00000059 00000-0 22084-4 0 09130
2 28895 098.1160 260.1450 0017385 207.4780 152.5471 14.59620617116159
NCUBE2
1 28897U 05043H 08003.69205203 .00000117 00000-0 34158-4 0 4432
2 28897 098.1141 261.3438 0016724 205.4915 154.5473 14.59788599108624
FCAL
1 29667U 06055J 08003.71660486 .00028431 11665-4 67555-4 0 6366
2 29667 051.6310 116.2252 0010051 053.2691 306.9244 15.97998611 59952
FALCON
1 30776U 07006E 08002.56695501 .00000284 00000-0 23864-4 0 02335
2 30776 035.4326 083.8925 0001613 352.7363 007.3329 15.02838776045069
MAST
1 31126U 07012K 08002.22468481 -.00000038 00000-0 19384-5 0 02229
2 31126 098.0622 073.1623 0095717 129.0078 231.9680 14.53388904037767
CAPE1
1 31130U 07012P 08002.90302714 .00000120 00000-0 38486-4 0 2027
2 31130 098.0616 073.2065 0103814 128.7508 232.3022 14.51917944 37594
